Simultaneous Nadir Overpasses (SNOs) Predictions

Prediction of SNOs between AQUA and NOAA-19 Satellite Orbit:

Table of predicted SNOs for the next 14.0 days since TLE Epoch: 6/17/2023
Index Date (AQUA) Time (AQUA) Lat,Lon (AQUA) SZA (AQUA ) Date (NOAA-19) Time (NOAA-19) Lat,Lon (NOAA-19) SZA (NOAA-19 ) Distance(km) Time Diff (sec)
1 06/17/2023 13:20:45 76.44, -29.68 53.20 06/17/2023 13:19:42 76.45, -29.61 53.22 1.93 63
2 06/17/2023 14:10:10 -76.51, 137.73 126.72 06/17/2023 14:10:38 -76.49, 137.81 126.75 3.33 28
3 06/19/2023 18:52:17 -76.48, 67.32 126.79 06/19/2023 18:52:08 -76.47, 67.43 126.81 3.03 9
4 06/21/2023 23:34:23 -76.43, -3.01 126.86 06/21/2023 23:33:38 -76.44, -2.99 126.84 1.44 45
5 06/22/2023 00:23:50 76.51, 164.37 53.23 06/22/2023 00:24:40 76.48, 164.40 53.20 3.44 50
6 06/24/2023 04:16:24 -76.17, -72.65 127.13 06/24/2023 04:15:15 -76.10, -74.59 127.08 52.11 69
7 06/24/2023 05:05:55 76.44, 94.09 53.19 06/24/2023 05:06:10 76.46, 94.02 53.21 2.66 15
8 06/26/2023 09:48:01 76.45, 23.56 53.26 06/26/2023 09:47:40 76.43, 23.60 53.24 2.51 21
9 06/26/2023 10:37:26 -76.51,-169.00 126.68 06/26/2023 10:38:34 -76.50,-168.85 126.71 3.94 68
10 06/28/2023 14:30:05 76.39, -46.74 53.28 06/28/2023 14:29:10 76.40, -46.85 53.30 2.64 55
11 06/28/2023 15:19:30 -76.45, 120.71 126.65 06/28/2023 15:20:04 -76.46, 120.67 126.65 1.45 34
12 06/30/2023 20:01:34 -76.42, 50.33 126.57 06/30/2023 20:01:33 -76.45, 50.34 126.53 3.82 1



Historial Predications of SNOs between AQUA and NOAA-19
